Le nostre stazioni meteo in Italia

Pubblicità
Il mio iltempo24.it
Piacenza, Italia (16084): Temperatura & dewpoint: 15.04.2019 09:00:00 - 21.04.2019 09:00:00 (CEST)Piacenza, Italia (16084): velocità del vento: 15.04.2019 09:00:00 - 21.04.2019 09:00:00 (CEST)Piacenza, Italia (16084): direzione del vento: 15.04.2019 09:00:00 - 21.04.2019 09:00:00 (CEST)Piacenza, Italia (16084): reduced air pressure: 15.04.2019 09:00:00 - 21.04.2019 09:00:00 (CEST)Piacenza, Italia (16084): visibility: 15.04.2019 09:00:00 - 21.04.2019 09:00:00 (CEST)Piacenza, Italia (16084): ore di luce: 15.04.2019 09:00:00 - 21.04.2019 09:00:00 (CEST)
Data & Tempo tt [°C] td [°C] ff [km/h] ff [kn] dd ppp [hPa] vv [km] sd [min]
21.04.2019 09:00:00 - - - - - - - -
21.04.2019 08:00:00 8,0 8,0 9 5 O 1022,2 20 0
21.04.2019 07:00:00 - - - - - - - -
21.04.2019 06:00:00 - - - - - - - -
21.04.2019 05:00:00 - - - - - - - -
21.04.2019 04:00:00 - - - - - - - -
21.04.2019 03:00:00 - - - - - - - -
21.04.2019 02:00:00 - - - - - - - -
21.04.2019 01:00:00 - - - - - - - -
21.04.2019 00:00:00 - - - - - - - -
20.04.2019 23:00:00 - - - - - - - -
20.04.2019 22:00:00 - - - - - - - -
20.04.2019 21:00:00 - - - - - - - -
20.04.2019 20:00:00 16,4 7,6 4 2 SSE 1022,8 14 0
20.04.2019 19:00:00 19,0 4,0 11 6 SE - 10 -
20.04.2019 18:00:00 20,0 1,0 16 9 ESE - 10 -
20.04.2019 17:00:00 20,0 1,4 16 9 E 1023,8 16 60
20.04.2019 16:00:00 21,0 2,0 21 11 ESE - 10 -
20.04.2019 15:00:00 20,0 2,0 21 11 ESE - 10 -
20.04.2019 14:00:00 20,0 2,4 13 7 SE 1025,9 14 60
20.04.2019 13:00:00 19,0 5,0 13 7 ENE - 10 -
20.04.2019 12:00:00 18,0 6,0 5 3 ENE - 10 -
20.04.2019 11:00:00 16,2 9,9 8 4 N 1027,2 12 60
20.04.2019 10:00:00 15,0 8,0 8 4 NNO - 10 -
20.04.2019 09:00:00 12,0 9,0 15 8 O - 10 -
20.04.2019 08:00:00 7,6 7,6 15 8 O 1027,5 14 18
20.04.2019 07:00:00 - - - - - - - -
20.04.2019 06:00:00 - - - - - - - -
20.04.2019 05:00:00 - - - - - - - -
20.04.2019 04:00:00 - - - - - - - -
20.04.2019 03:00:00 - - - - - - - -
20.04.2019 02:00:00 - - - - - - - -
20.04.2019 01:00:00 - - - - - - - -
20.04.2019 00:00:00 - - - - - - - -
19.04.2019 23:00:00 - - - - - - - -
19.04.2019 22:00:00 - - - - - - - -
19.04.2019 21:00:00 - - - - - - - -
19.04.2019 20:00:00 17,0 4,7 8 4 ESE 1027,0 18 18
19.04.2019 19:00:00 18,0 3,0 11 6 ESE - 10 -
19.04.2019 18:00:00 19,0 4,0 13 7 SE - 10 -
19.04.2019 17:00:00 19,4 4,0 13 7 SE 1027,8 18 60
19.04.2019 16:00:00 19,0 4,0 18 10 ESE - 10 -
19.04.2019 15:00:00 20,0 5,0 15 8 ESE - 10 -
19.04.2019 14:00:00 18,8 4,2 15 8 ESE 1029,0 15 60
19.04.2019 13:00:00 18,0 6,0 15 8 ESE - 10 -
19.04.2019 12:00:00 17,0 6,0 13 7 E - 10 -
19.04.2019 11:00:00 16,6 9,3 11 6 E 1029,4 15 60
19.04.2019 10:00:00 15,0 5,0 13 7 E - 10 -
19.04.2019 09:00:00 11,0 7,0 2 1 OSO - 10 -
19.04.2019 08:00:00 7,0 7,0 8 4 OSO 1029,0 15 18
19.04.2019 07:00:00 - - - - - - - -
19.04.2019 06:00:00 - - - - - - - -
19.04.2019 05:00:00 - - - - - - - -
19.04.2019 04:00:00 - - - - - - - -
19.04.2019 03:00:00 - - - - - - - -
19.04.2019 02:00:00 - - - - - - - -
19.04.2019 01:00:00 - - - - - - - -
19.04.2019 00:00:00 - - - - - - - -
18.04.2019 23:00:00 - - - - - - - -
18.04.2019 22:00:00 - - - - - - - -
18.04.2019 21:00:00 - - - - - - - -
18.04.2019 20:00:00 15,6 5,2 15 8 ESE 1023,6 13 6
18.04.2019 19:00:00 18,0 5,0 21 11 ESE - 10 -
18.04.2019 18:00:00 19,0 4,0 22 12 ESE - 10 -
18.04.2019 17:00:00 19,2 3,8 24 13 ESE 1022,6 12 60
18.04.2019 16:00:00 19,0 5,0 24 13 ESE - 10 -
18.04.2019 15:00:00 19,0 5,0 24 13 ESE - 10 -
18.04.2019 14:00:00 18,4 5,9 24 13 ESE 1023,3 11 60
18.04.2019 13:00:00 18,0 8,0 24 13 E - 10 -
18.04.2019 12:00:00 17,0 7,0 21 11 ESE - 10 -
18.04.2019 11:00:00 15,2 8,2 16 9 ESE 1023,7 10 60
18.04.2019 10:00:00 12,0 10,0 9 5 ESE - 10 -
18.04.2019 09:00:00 11,0 8,0 4 2 NNE - 10 -
18.04.2019 08:00:00 7,4 7,4 8 4 OSO 1023,4 12 6
18.04.2019 07:00:00 - - - - - - - -
18.04.2019 06:00:00 - - - - - - - -
18.04.2019 05:00:00 - - - - - - - -
18.04.2019 04:00:00 - - - - - - - -
18.04.2019 03:00:00 - - - - - - - -
18.04.2019 02:00:00 - - - - - - - -
18.04.2019 01:00:00 - - - - - - - -
18.04.2019 00:00:00 - - - - - - - -
17.04.2019 23:00:00 - - - - - - - -
17.04.2019 22:00:00 - - - - - - - -
17.04.2019 21:00:00 - - - - - - - -
17.04.2019 20:00:00 17,2 7,8 8 4 SE 1018,7 15 18
17.04.2019 19:00:00 19,0 3,0 11 6 ESE - 10 -
17.04.2019 18:00:00 20,0 2,0 4 2 E - 10 -
17.04.2019 17:00:00 19,8 1,3 8 4 ESE 1018,6 12 60
17.04.2019 16:00:00 20,0 3,0 8 4 ENE - 10 -
17.04.2019 15:00:00 19,0 6,0 5 3 NE - 10 -
17.04.2019 14:00:00 18,6 4,4 9 5 NNE 1019,8 12 60
17.04.2019 13:00:00 18,0 6,0 8 4 NE - 10 -
17.04.2019 12:00:00 17,0 8,0 8 4 NE - 10 -
17.04.2019 11:00:00 15,6 7,9 5 3 N 1020,3 12 60
17.04.2019 10:00:00 14,0 10,0 5 3 NE - 10 -
17.04.2019 09:00:00 11,0 9,0 13 7 O - 10 -
17.04.2019 08:00:00 6,4 6,4 11 6 OSO 1020,3 12 6
17.04.2019 07:00:00 - - - - - - - -
17.04.2019 06:00:00 - - - - - - - -
17.04.2019 05:00:00 - - - - - - - -
17.04.2019 04:00:00 - - - - - - - -
17.04.2019 03:00:00 - - - - - - - -
17.04.2019 02:00:00 - - - - - - - -
17.04.2019 01:00:00 - - - - - - - -
17.04.2019 00:00:00 - - - - - - - -
16.04.2019 23:00:00 - - - - - - - -
16.04.2019 22:00:00 - - - - - - - -
16.04.2019 21:00:00 - - - - - - - -
16.04.2019 20:00:00 13,6 11,8 9 5 O 1018,4 12 0
16.04.2019 19:00:00 15,0 11,0 5 3 O - 10 -
16.04.2019 18:00:00 16,0 9,0 4 2 SO - 10 -
16.04.2019 17:00:00 16,6 3,0 5 3 E 1017,8 12 0
16.04.2019 16:00:00 17,0 3,0 8 4 E - 10 -
16.04.2019 15:00:00 17,0 3,0 11 6 E - 10 -
16.04.2019 14:00:00 17,4 4,4 13 7 E 1018,1 12 60
16.04.2019 13:00:00 17,0 7,0 16 9 E - 10 -
16.04.2019 12:00:00 16,0 10,0 13 7 E - 10 -
16.04.2019 11:00:00 14,0 11,2 11 6 NE 1019,2 10 60
16.04.2019 10:00:00 13,0 8,0 4 2 ESE - 10 -
16.04.2019 09:00:00 10,0 9,0 13 7 O - 10 -
16.04.2019 08:00:00 5,0 5,0 13 7 OSO 1019,4 12 0
16.04.2019 07:00:00 - - - - - - - -
16.04.2019 06:00:00 - - - - - - - -
16.04.2019 05:00:00 - - - - - - - -
16.04.2019 04:00:00 - - - - - - - -
16.04.2019 03:00:00 - - - - - - - -
16.04.2019 02:00:00 - - - - - - - -
16.04.2019 01:00:00 - - - - - - - -
16.04.2019 00:00:00 - - - - - - - -
15.04.2019 23:00:00 - - - - - - - -
15.04.2019 22:00:00 - - - - - - - -
15.04.2019 21:00:00 - - - - - - - -
15.04.2019 20:00:00 14,6 8,1 8 4 SE 1018,3 18 24
15.04.2019 19:00:00 16,0 6,0 9 5 E - 10 -
15.04.2019 18:00:00 17,0 7,0 15 8 SE - 10 -
15.04.2019 17:00:00 17,2 7,5 13 7 SE 1018,5 18 60
15.04.2019 16:00:00 17,0 7,0 13 7 E - 10 -
15.04.2019 15:00:00 16,0 7,0 13 7 E - 10 -
15.04.2019 14:00:00 15,6 7,6 5 3 ENE 1019,5 15 60
15.04.2019 13:00:00 15,0 7,0 9 5 E - 10 -
15.04.2019 12:00:00 14,0 6,0 5 3 ESE - 10 -
15.04.2019 11:00:00 13,8 6,2 5 3 OSO 1019,9 15 60
15.04.2019 10:00:00 12,0 7,0 4 2 OSO - 10 -
15.04.2019 09:00:00 10,0 10,0 11 6 O - 10 -

tt = Temperatura
td = dewpoint
ff = velocità del vento
dd = direzione del vento
ppp = reduced air pressure
vv = visibility
sd = ore di luce

Stazioni seguenti

WeatherPro
AMSI
MeteoEarth